Time,TemperatureF,DewpointF,PressureIn,WindDirection,WindDirectionDegrees,WindSpeedMPH,WindSpeedGustMPH,Humidity,HourlyPrecipIn,Conditions,Clouds,dailyrainin,SolarRadiationWatts/m^2,SoftwareType,DateUTC
2013-05-29 00:01:00,39.0,39.0,-100.00,WSW,245,1.0,4.0,100,0.01,,,0.24,0.000000,,2013-05-29 06:01:00,
2013-05-29 00:22:00,38.0,38.0,-100.00,North,359,1.0,4.0,99,0.01,,,0.25,0.000000,,2013-05-29 06:22:00,
2013-05-29 00:32:00,38.0,38.0,-100.00,North,359,1.0,4.0,99,0.01,,,0.25,0.000000,,2013-05-29 06:32:00,
2013-05-29 00:42:00,38.0,38.0,-100.00,North,359,1.0,4.0,99,0.01,,,0.25,0.000000,,2013-05-29 06:42:00,
2013-05-29 00:52:00,38.0,38.0,-100.00,North,359,1.0,4.0,99,0.01,,,0.25,0.000000,,2013-05-29 06:52:00,
2013-05-29 01:01:00,38.0,38.0,-100.00,North,359,1.0,4.0,99,0.01,,,0.25,0.000000,,2013-05-29 07:01:00,
2013-05-29 01:22:00,38.0,37.0,-100.00,SE,144,0.0,4.0,97,0.00,,,0.25,0.000000,,2013-05-29 07:22:00,
2013-05-29 01:34:00,38.0,37.0,-100.00,SE,144,0.0,4.0,97,0.00,,,0.25,0.000000,,2013-05-29 07:34:00,
2013-05-29 01:42:00,38.0,37.0,-100.00,SE,144,0.0,4.0,97,0.00,,,0.25,0.000000,,2013-05-29 07:42:00,
2013-05-29 01:52:00,38.0,37.0,-100.00,SE,144,0.0,4.0,97,0.00,,,0.25,0.000000,,2013-05-29 07:52:00,
2013-05-29 02:02:00,38.0,37.0,-100.00,SE,144,0.0,4.0,97,0.00,,,0.25,0.000000,,2013-05-29 08:02:00,
2013-05-29 02:22:00,40.0,40.0,-100.00,NNE,21,0.0,3.0,100,0.00,,,0.24,0.000000,,2013-05-29 08:22:00,
2013-05-29 02:32:00,40.0,40.0,-100.00,NNE,21,0.0,3.0,100,0.00,,,0.24,0.000000,,2013-05-29 08:32:00,
2013-05-29 02:42:00,40.0,40.0,-100.00,NNE,21,0.0,3.0,100,0.00,,,0.24,0.000000,,2013-05-29 08:42:00,
2013-05-29 02:52:00,40.0,40.0,-100.00,NNE,21,0.0,3.0,100,0.00,,,0.24,0.000000,,2013-05-29 08:52:00,
2013-05-29 03:01:00,40.0,40.0,-100.00,NNE,21,0.0,3.0,100,0.00,,,0.24,0.000000,,2013-05-29 09:01:00,
2013-05-29 03:22:00,40.0,40.0,-100.00,WSW,243,1.0,3.0,100,0.02,,,0.23,0.000000,,2013-05-29 09:22:00,
2013-05-29 03:33:00,40.0,40.0,-100.00,WSW,243,1.0,3.0,100,0.02,,,0.23,0.000000,,2013-05-29 09:33:00,
2013-05-29 03:42:00,40.0,40.0,-100.00,WSW,243,1.0,3.0,100,0.02,,,0.23,0.000000,,2013-05-29 09:42:00,
2013-05-29 03:52:00,40.0,40.0,-100.00,WSW,243,1.0,3.0,100,0.02,,,0.23,0.000000,,2013-05-29 09:52:00,
2013-05-29 04:02:00,40.0,40.0,-100.00,WSW,243,1.0,3.0,100,0.02,,,0.23,0.000000,,2013-05-29 10:02:00,
2013-05-29 04:22:00,40.0,40.0,-100.00,WSW,244,1.0,5.0,100,0.03,,,0.26,0.000000,,2013-05-29 10:22:00,
2013-05-29 04:33:00,40.0,40.0,-100.00,WSW,244,1.0,5.0,100,0.03,,,0.26,0.000000,,2013-05-29 10:33:00,
2013-05-29 04:42:00,40.0,40.0,-100.00,WSW,244,1.0,5.0,100,0.03,,,0.26,0.000000,,2013-05-29 10:42:00,
2013-05-29 04:53:00,40.0,40.0,-100.00,WSW,244,1.0,5.0,100,0.03,,,0.26,0.000000,,2013-05-29 10:53:00,
2013-05-29 05:02:00,40.0,40.0,-100.00,WSW,244,1.0,5.0,100,0.03,,,0.26,0.000000,,2013-05-29 11:02:00,
2013-05-29 05:22:00,38.0,38.0,-100.00,WSW,243,1.0,5.0,100,0.01,,,0.27,0.000000,,2013-05-29 11:22:00,
2013-05-29 05:32:00,38.0,38.0,-100.00,WSW,243,1.0,5.0,100,0.01,,,0.27,0.000000,,2013-05-29 11:32:00,
2013-05-29 05:42:00,38.0,38.0,-100.00,WSW,243,1.0,5.0,100,0.01,,,0.27,0.000000,,2013-05-29 11:42:00,
2013-05-29 05:52:00,38.0,38.0,-100.00,WSW,243,1.0,5.0,100,0.01,,,0.27,0.000000,,2013-05-29 11:52:00,
2013-05-29 06:01:00,38.0,38.0,-100.00,WSW,243,1.0,5.0,100,0.01,,,0.27,0.000000,,2013-05-29 12:01:00,
2013-05-29 06:22:00,38.0,38.0,-100.00,WSW,250,1.0,4.0,100,0.00,,,0.27,0.000000,,2013-05-29 12:22:00,
2013-05-29 06:32:00,38.0,38.0,-100.00,WSW,250,1.0,4.0,100,0.00,,,0.27,0.000000,,2013-05-29 12:32:00,
2013-05-29 06:42:00,38.0,38.0,-100.00,WSW,250,1.0,4.0,100,0.00,,,0.27,0.000000,,2013-05-29 12:42:00,
2013-05-29 06:52:00,38.0,38.0,-100.00,WSW,250,1.0,4.0,100,0.00,,,0.27,0.000000,,2013-05-29 12:52:00,
2013-05-29 07:01:00,38.0,38.0,-100.00,WSW,250,1.0,4.0,100,0.00,,,0.27,0.000000,,2013-05-29 13:01:00,
2013-05-29 07:22:00,38.0,38.0,-100.00,WSW,249,1.0,6.0,100,0.01,,,0.27,6.000000,,2013-05-29 13:22:00,
2013-05-29 07:32:00,38.0,38.0,-100.00,WSW,249,1.0,6.0,100,0.01,,,0.27,6.000000,,2013-05-29 13:32:00,
2013-05-29 07:42:00,38.0,38.0,-100.00,WSW,249,1.0,6.0,100,0.01,,,0.27,6.000000,,2013-05-29 13:42:00,
2013-05-29 07:53:00,38.0,38.0,-100.00,WSW,249,1.0,6.0,100,0.01,,,0.27,6.000000,,2013-05-29 13:53:00,
2013-05-29 08:01:00,38.0,38.0,-100.00,WSW,249,1.0,6.0,100,0.01,,,0.27,6.000000,,2013-05-29 14:01:00,
2013-05-29 08:22:00,38.0,38.0,-100.00,WSW,242,1.0,5.0,100,0.02,,,0.29,7.000000,,2013-05-29 14:22:00,
2013-05-29 08:32:00,38.0,38.0,-100.00,WSW,242,1.0,5.0,100,0.02,,,0.29,7.000000,,2013-05-29 14:32:00,
2013-05-29 08:42:00,38.0,38.0,-100.00,WSW,242,1.0,5.0,100,0.02,,,0.29,7.000000,,2013-05-29 14:42:00,
2013-05-29 08:52:00,38.0,38.0,-100.00,WSW,242,1.0,5.0,100,0.02,,,0.29,7.000000,,2013-05-29 14:52:00,
2013-05-29 09:01:00,38.0,38.0,-100.00,WSW,242,1.0,5.0,100,0.02,,,0.29,7.000000,,2013-05-29 15:01:00,
2013-05-29 09:03:00,40.0,40.0,-100.00,NW,309,1.0,5.0,100,0.03,,,0.32,31.000000,,2013-05-29 15:03:00,
2013-05-29 09:22:00,40.0,40.0,-100.00,NW,309,1.0,5.0,100,0.03,,,0.32,31.000000,,2013-05-29 15:22:00,
2013-05-29 09:33:00,40.0,40.0,-100.00,NW,309,1.0,5.0,100,0.03,,,0.32,31.000000,,2013-05-29 15:33:00,
2013-05-29 09:42:00,40.0,40.0,-100.00,NW,309,1.0,5.0,100,0.03,,,0.32,31.000000,,2013-05-29 15:42:00,
2013-05-29 09:53:00,40.0,40.0,-100.00,NW,309,1.0,5.0,100,0.03,,,0.32,31.000000,,2013-05-29 15:53:00,
2013-05-29 10:22:00,40.0,40.0,-100.00,SW,235,1.0,5.0,99,0.06,,,0.38,109.000000,,2013-05-29 16:22:00,
2013-05-29 10:33:00,40.0,40.0,-100.00,SW,235,1.0,5.0,99,0.06,,,0.38,109.000000,,2013-05-29 16:33:00,
2013-05-29 10:42:00,40.0,40.0,-100.00,SW,235,1.0,5.0,99,0.06,,,0.38,109.000000,,2013-05-29 16:42:00,
2013-05-29 10:52:00,40.0,40.0,-100.00,SW,235,1.0,5.0,99,0.06,,,0.38,109.000000,,2013-05-29 16:52:00,
2013-05-29 11:02:00,40.0,40.0,-100.00,SW,235,1.0,5.0,99,0.06,,,0.38,109.000000,,2013-05-29 17:02:00,
2013-05-29 11:22:00,42.0,41.0,-100.00,WSW,253,1.0,7.0,97,0.03,,,0.41,149.000000,,2013-05-29 17:22:00,
2013-05-29 11:32:00,42.0,41.0,-100.00,WSW,253,1.0,7.0,97,0.03,,,0.41,149.000000,,2013-05-29 17:32:00,
2013-05-29 11:42:00,42.0,41.0,-100.00,WSW,253,1.0,7.0,97,0.03,,,0.41,149.000000,,2013-05-29 17:42:00,
2013-05-29 11:52:00,42.0,41.0,-100.00,WSW,253,1.0,7.0,97,0.03,,,0.41,149.000000,,2013-05-29 17:52:00,
2013-05-29 12:01:00,42.0,41.0,-100.00,WSW,253,1.0,7.0,97,0.03,,,0.41,149.000000,,2013-05-29 18:01:00,
2013-05-29 12:22:00,41.0,40.0,-100.00,WSW,252,2.0,8.0,97,0.02,,,0.43,195.000000,,2013-05-29 18:22:00,
2013-05-29 12:32:00,41.0,40.0,-100.00,WSW,252,2.0,8.0,97,0.02,,,0.43,195.000000,,2013-05-29 18:32:00,
2013-05-29 12:42:00,41.0,40.0,-100.00,WSW,252,2.0,8.0,97,0.02,,,0.43,195.000000,,2013-05-29 18:42:00,
2013-05-29 12:52:00,41.0,40.0,-100.00,WSW,252,2.0,8.0,97,0.02,,,0.43,195.000000,,2013-05-29 18:52:00,
2013-05-29 13:01:00,41.0,40.0,-100.00,WSW,252,2.0,8.0,97,0.02,,,0.43,195.000000,,2013-05-29 19:01:00,
2013-05-29 13:22:00,46.0,45.0,-100.00,WSW,239,3.0,8.0,96,0.02,,,0.45,212.000000,,2013-05-29 19:22:00,
2013-05-29 13:32:00,46.0,45.0,-100.00,WSW,239,3.0,8.0,96,0.02,,,0.45,212.000000,,2013-05-29 19:32:00,
2013-05-29 13:44:00,46.0,45.0,-100.00,WSW,239,3.0,8.0,96,0.02,,,0.45,212.000000,,2013-05-29 19:44:00,
2013-05-29 13:53:00,46.0,45.0,-100.00,WSW,239,3.0,8.0,96,0.02,,,0.45,212.000000,,2013-05-29 19:53:00,
2013-05-29 14:02:00,46.0,45.0,-100.00,WSW,239,3.0,8.0,96,0.02,,,0.45,212.000000,,2013-05-29 20:02:00,
2013-05-29 14:23:00,51.0,47.0,-100.00,West,268,1.0,8.0,85,0.00,,,0.45,373.000000,,2013-05-29 20:23:00,
2013-05-29 14:33:00,51.0,47.0,-100.00,West,268,1.0,8.0,85,0.00,,,0.45,373.000000,,2013-05-29 20:33:00,
2013-05-29 14:42:00,51.0,47.0,-100.00,West,268,1.0,8.0,85,0.00,,,0.45,373.000000,,2013-05-29 20:42:00,
2013-05-29 14:52:00,51.0,47.0,-100.00,West,268,1.0,8.0,85,0.00,,,0.45,373.000000,,2013-05-29 20:52:00,
2013-05-29 15:02:00,51.0,47.0,-100.00,West,268,1.0,8.0,85,0.00,,,0.45,373.000000,,2013-05-29 21:02:00,
2013-05-29 15:03:00,46.0,43.0,-100.00,NNE,22,2.0,8.0,90,0.02,,,0.47,177.000000,,2013-05-29 21:03:00,
2013-05-29 15:22:00,46.0,43.0,-100.00,NNE,22,2.0,8.0,90,0.02,,,0.47,177.000000,,2013-05-29 21:22:00,
2013-05-29 15:33:00,46.0,43.0,-100.00,NNE,22,2.0,8.0,90,0.02,,,0.47,177.000000,,2013-05-29 21:33:00,
2013-05-29 15:44:00,46.0,43.0,-100.00,NNE,22,2.0,8.0,90,0.02,,,0.47,177.000000,,2013-05-29 21:44:00,
2013-05-29 15:53:00,46.0,43.0,-100.00,NNE,22,2.0,8.0,90,0.02,,,0.47,177.000000,,2013-05-29 21:53:00,
2013-05-29 16:23:00,41.0,40.0,-100.00,NW,326,0.0,8.0,97,0.11,,,0.54,104.000000,,2013-05-29 22:23:00,
2013-05-29 16:34:00,41.0,40.0,-100.00,NW,326,0.0,8.0,97,0.11,,,0.54,104.000000,,2013-05-29 22:34:00,
2013-05-29 16:42:00,41.0,40.0,-100.00,NW,326,0.0,8.0,97,0.11,,,0.54,104.000000,,2013-05-29 22:42:00,
2013-05-29 16:53:00,41.0,40.0,-100.00,NW,326,0.0,8.0,97,0.11,,,0.54,104.000000,,2013-05-29 22:53:00,
2013-05-29 17:02:00,41.0,40.0,-100.00,NW,326,0.0,8.0,97,0.11,,,0.54,104.000000,,2013-05-29 23:02:00,
2013-05-29 17:22:00,40.0,38.0,-100.00,SSW,206,3.0,9.0,93,0.04,,,0.55,100.000000,,2013-05-29 23:22:00,
2013-05-29 17:33:00,40.0,38.0,-100.00,SSW,206,3.0,9.0,93,0.04,,,0.55,100.000000,,2013-05-29 23:33:00,
2013-05-29 17:42:00,40.0,38.0,-100.00,SSW,206,3.0,9.0,93,0.04,,,0.55,100.000000,,2013-05-29 23:42:00,
2013-05-29 17:53:00,40.0,38.0,-100.00,SSW,206,3.0,9.0,93,0.04,,,0.55,100.000000,,2013-05-29 23:53:00,
2013-05-29 18:01:00,40.0,38.0,-100.00,SSW,206,3.0,9.0,93,0.04,,,0.55,100.000000,,2013-05-30 00:01:00,
2013-05-29 18:22:00,42.0,41.0,-100.00,SW,236,3.0,8.0,96,0.03,,,-99.99,80.000000,,2013-05-30 00:22:00,
2013-05-29 18:32:00,42.0,41.0,-100.00,SW,236,3.0,8.0,96,0.03,,,-99.99,80.000000,,2013-05-30 00:32:00,
2013-05-29 18:42:00,42.0,41.0,-100.00,SW,236,3.0,8.0,96,0.03,,,-99.99,80.000000,,2013-05-30 00:42:00,
2013-05-29 18:52:00,42.0,41.0,-100.00,SW,236,3.0,8.0,96,0.03,,,-99.99,80.000000,,2013-05-30 00:52:00,
2013-05-29 19:01:00,42.0,41.0,-100.00,SW,236,3.0,8.0,96,0.03,,,-99.99,80.000000,,2013-05-30 01:01:00,
2013-05-29 19:22:00,42.0,40.0,-100.00,SW,214,2.0,9.0,91,0.02,,,0.59,113.000000,,2013-05-30 01:22:00,
2013-05-29 19:32:00,42.0,40.0,-100.00,SW,214,2.0,9.0,91,0.02,,,0.59,113.000000,,2013-05-30 01:32:00,
2013-05-29 19:42:00,42.0,40.0,-100.00,SW,214,2.0,9.0,91,0.02,,,0.59,113.000000,,2013-05-30 01:42:00,
2013-05-29 19:52:00,42.0,40.0,-100.00,SW,214,2.0,9.0,91,0.02,,,0.59,113.000000,,2013-05-30 01:52:00,
2013-05-29 20:01:00,42.0,40.0,-100.00,SW,214,2.0,9.0,91,0.02,,,0.59,113.000000,,2013-05-30 02:01:00,
2013-05-29 20:22:00,43.0,41.0,-100.00,SSE,168,1.0,6.0,94,0.00,,,0.59,51.000000,,2013-05-30 02:22:00,
2013-05-29 20:32:00,43.0,41.0,-100.00,SSE,168,1.0,6.0,94,0.00,,,0.59,51.000000,,2013-05-30 02:32:00,
2013-05-29 20:42:00,43.0,41.0,-100.00,SSE,168,1.0,6.0,94,0.00,,,0.59,51.000000,,2013-05-30 02:42:00,
2013-05-29 20:52:00,43.0,41.0,-100.00,SSE,168,1.0,6.0,94,0.00,,,0.59,51.000000,,2013-05-30 02:52:00,
2013-05-29 21:01:00,43.0,41.0,-100.00,SSE,168,1.0,6.0,94,0.00,,,0.59,51.000000,,2013-05-30 03:01:00,
2013-05-29 21:21:00,41.0,40.0,-100.00,SW,225,3.0,11.0,97,0.00,,,0.55,11.000000,,2013-05-30 03:21:00,
2013-05-29 21:33:00,41.0,40.0,-100.00,SW,225,3.0,11.0,97,0.00,,,0.55,11.000000,,2013-05-30 03:33:00,
2013-05-29 21:43:00,41.0,40.0,-100.00,SW,225,3.0,11.0,97,0.00,,,0.55,11.000000,,2013-05-30 03:43:00,
2013-05-29 21:53:00,41.0,40.0,-100.00,SW,225,3.0,11.0,97,0.00,,,0.55,11.000000,,2013-05-30 03:53:00,
2013-05-29 22:02:00,41.0,40.0,-100.00,SW,225,3.0,11.0,97,0.00,,,0.55,11.000000,,2013-05-30 04:02:00,
2013-05-29 22:23:00,38.0,38.0,-100.00,NNE,13,1.0,10.0,99,0.13,,,0.62,0.000000,,2013-05-30 04:23:00,
2013-05-29 22:33:00,38.0,38.0,-100.00,NNE,13,1.0,10.0,99,0.13,,,0.62,0.000000,,2013-05-30 04:33:00,
2013-05-29 22:42:00,38.0,38.0,-100.00,NNE,13,1.0,10.0,99,0.13,,,0.62,0.000000,,2013-05-30 04:42:00,
2013-05-29 22:53:00,38.0,38.0,-100.00,NNE,13,1.0,10.0,99,0.13,,,0.62,0.000000,,2013-05-30 04:53:00,
2013-05-29 23:02:00,38.0,38.0,-100.00,NNE,13,1.0,10.0,99,0.13,,,0.62,0.000000,,2013-05-30 05:02:00,
2013-05-29 23:22:00,39.0,38.0,-100.00,South,191,2.0,8.0,96,0.06,,,0.67,0.000000,,2013-05-30 05:22:00,
2013-05-29 23:32:00,39.0,38.0,-100.00,South,191,2.0,8.0,96,0.06,,,0.67,0.000000,,2013-05-30 05:32:00,
2013-05-29 23:42:00,39.0,38.0,-100.00,South,191,2.0,8.0,96,0.06,,,0.67,0.000000,,2013-05-30 05:42:00,
2013-05-29 23:52:00,39.0,38.0,-100.00,South,191,2.0,8.0,96,0.06,,,0.67,0.000000,,2013-05-30 05:52:00,